星链-1816 (STARLINK-1816 )

导读

STARLINK-1816是美国太空探索技术公司星链星座的组网卫星,于2020年10月18日发射。星链项目旨在构建全球卫星互联网系统,这颗卫星承担着为全球偏远地区等提供低延迟宽带网络接入的任务,属于低轨通信卫星,进一步推进了星链星座的组网部署进程。

基本信息
目录编号:
46714
目录名称:
STARLINK-1816
国际标识:
2020-073AW
轨道中心:
EARTH
卫星名称:
星链-1816
卫星全名:
星链-1816 (STARLINK-1816 )
卫星状态:
已陨落 最后检测时间 2026-05-22
发射日期:
2020-10-18 UTC
国别 :
美国 (US)
星等 :
--
该卫星已列入 空间交会检测服务 Space Conjunction Data Service (SCDS) ,当前飞行风险评估等级: 无高风险
轨道信息
数据来源 国际轨道数据
星历时间: 2026-05-22T07:45:47+0800
轨道信息已过期112天
半长轴: 6533.615km
偏心率: 0.0005614
轨道倾角: 53.012°
近地点辐角 309.674°
升交点赤经 185.258°
平近点角 50.382°
近地点: 151.81km
远地点: 159.146km
周期: 87.597分钟
每日圈数: 16.438891
详细信息
固有亮度:
5
最大亮度:
2.5
卫星平台:
Starlink V1.0
覆盖范围:
全球
运营商:
太空探索技术公司
运营商所在国:
美国
制造商(研发单位):
太空探索技术公司
制造商所在国:
美国
使用方式:
暂无
卫星简介
星链(Starlink)计划是由太空探索技术公司(SpaceX)提出的一个巨型低轨卫星互联网星座项目,计划在2019年至2024年间在太空搭建由约1.2万颗卫星组成的“星链”网络,其中1584颗将部署在地球上空550千米处的近地轨道,并从2020年开始工作。该卫星仍在工作。
与全量物体交会距离演化趋势
与全量物体交会风险概率演化趋势